Location: *
(40.7873°S, 98.7174°E)
Time: 09:28:02
(UTC+00:00)

Cosmos 2173 Rocket - Pass Details

Date: 24 May 2022
Orbit: 945 x 1000 km, 83.0° (Epoch: 04 July)

Event Time Altitude Azimuth Distance (km) Brightness Sun altitude
Rises 11:33:45 0° 187° (S) 3,753 7.0 -15.6°
Reaches altitude 10° 11:36:19 10° 186° (S) 2,793 6.3 -16.0°
Maximum altitude 11:42:46 84° 97° (E) 1,006 4.0 -17.2°
Drops below altitude 10° 11:49:03 10° 8° (N) 2,727 6.4 -18.4°
Sets 11:51:31 0° 7° (N) 3,658 7.1 -18.8°
